Location: Feydey
(46.3431°N, 7.0106°E)
Time: 06:08:12
(UTC+00:00)

Cosmos 1603 - Visible Passes

Search period start: 23 October 2021 00:00
Search period end: 02 November 2021 00:00
Orbit: 829 x 861 km, 71.0° (Epoch: 22 October)

Date Brightness Start Highest point End Pass type
(mag) Time Alt. Az. Time Alt. Az. Time Alt. Az.
29 Oct 5.8 05:29:34 10° N 05:34:09 24° NE 05:38:42 10° E visible
30 Oct 5.8 05:15:36 10° N 05:20:08 23° NE 05:24:38 10° E visible
31 Oct 5.9 05:01:39 10° N 05:06:07 23° NE 05:10:35 10° E visible
01 Nov 5.9 04:47:41 10° N 04:52:07 22° NE 04:56:30 10° E visible
